Location: �quirre
(50.4736°N, 2.2351°E)
Time: 21:16:27
(UTC+00:00)

Cosmos 1464 Rocket - Pass Details

Date: 07 August 2020
Orbit: 952 x 1002 km, 82.9° (Epoch: 21 September)

Event Time Altitude Azimuth Distance (km) Brightness Sun altitude
Exits shadow 00:08:51 43° 153° (SSE) 1,347 4.3 -23.1°
Maximum altitude 00:10:47 63° 94° (E) 1,091 4.2 -23.1°
Drops below altitude 10° 00:16:55 10° 15° (NNE) 2,722 7.4 -23.0°
Sets 00:19:26 0° 12° (NNE) 3,666 8.5 -23.0°
